Location: New Plymouth
(39.0670°S, 174.0830°E)
Time: 17:03:53
(UTC+13:00)

Terra - Pass Details

Date: 24 January 2019
Orbit: 701 x 703 km, 98.2° (Epoch: 23 October)

Event Time Altitude Azimuth Distance (km) Brightness Sun altitude
Rises 23:06:41 0° 150° (SSE) 3,127 5.4 -22.1°
Reaches altitude 10° 23:09:39 10° 130° (SE) 2,199 4.4 -22.4°
Enters shadow 23:11:20 16° 112° (ESE) 1,837 3.8 -22.6°
